| time (UTC) | temp F | wind direction | speed MPH | gust MPH | rain 1hr in | rain 24hr in | rain mn in | humidity % | barometer mb |
| 20260510001014 | 64 | 267 | 5.0 | 14.0 | 0.00 | 0.00 | 0.00 | 84 | 1011.9 |
| 20260510000510 | 65 | 223 | 4.0 | 15.0 | 0.00 | 0.00 | 0.00 | 84 | 1012.0 |
| 20260510000029 | 65 | 224 | 5.0 | 15.0 | 0.00 | 0.00 | 0.00 | 83 | 1011.9 |
| 20260509235513 | 66 | 279 | 7.0 | 14.0 | 0.00 | 0.00 | 0.00 | 81 | 1011.9 |
| 20260509235015 | 66 | 276 | 4.0 | 14.0 | 0.00 | 0.00 | 0.00 | 81 | 1011.8 |
| 20260509234542 | 66 | 278 | 6.0 | 14.0 | 0.00 | 0.00 | 0.00 | 81 | 1011.8 |
| 20260509234013 | 66 | 264 | 4.0 | 14.0 | 0.00 | 0.00 | 0.00 | 82 | 1011.8 |
| 20260509233514 | 67 | 284 | 5.0 | 14.0 | 0.00 | 0.00 | 0.00 | 80 | 1011.8 |
| 20260509233030 | 67 | 219 | 4.0 | 13.0 | 0.00 | 0.00 | 0.00 | 80 | 1011.9 |
| 20260509232514 | 67 | 231 | 6.0 | 16.0 | 0.00 | 0.00 | 0.00 | 80 | 1012.0 |
| 20260509232011 | 67 | 281 | 7.0 | 16.0 | 0.00 | 0.00 | 0.00 | 80 | 1012.0 |
| 20260509231529 | 67 | 219 | 6.0 | 16.0 | 0.00 | 0.00 | 0.00 | 80 | 1012.0 |
| 20260509231009 | 67 | 309 | 5.0 | 14.0 | 0.00 | 0.00 | 0.00 | 80 | 1011.9 |
| 20260509230513 | 67 | 281 | 5.0 | 14.0 | 0.00 | 0.00 | 0.00 | 80 | 1011.8 |
| 20260509230034 | 67 | 220 | 6.0 | 14.0 | 0.00 | 0.00 | 0.00 | 79 | 1011.9 |
| 20260509225513 | 67 | 273 | 5.0 | 14.0 | 0.00 | 0.00 | 0.00 | 80 | 1011.9 |
| 20260509225012 | 66 | 350 | 6.0 | 15.0 | 0.00 | 0.00 | 0.00 | 80 | 1011.9 |
| 20260509224532 | 67 | 290 | 7.0 | 15.0 | 0.00 | 0.00 | 0.00 | 80 | 1012.0 |
| 20260509224013 | 67 | 244 | 7.0 | 14.0 | 0.00 | 0.00 | 0.00 | 79 | 1012.1 |
| 20260509223513 | 67 | 284 | 5.0 | 14.0 | 0.00 | 0.00 | 0.00 | 80 | 1012.1 |
| 20260509223033 | 67 | 281 | 6.0 | 14.0 | 0.00 | 0.00 | 0.00 | 80 | 1012.3 |
| 20260509222515 | 67 | 255 | 6.0 | 15.0 | 0.00 | 0.00 | 0.00 | 79 | 1012.3 |
| 20260509222013 | 67 | 273 | 8.0 | 15.0 | 0.00 | 0.00 | 0.00 | 79 | 1012.4 |
| 20260509221535 | 67 | 286 | 6.0 | 14.0 | 0.00 | 0.00 | 0.00 | 79 | 1012.5 |
| 20260509221013 | 68 | 262 | 5.0 | 15.0 | 0.00 | 0.00 | 0.00 | 78 | 1012.5 |
| 20260509220511 | 68 | 278 | 6.0 | 15.0 | 0.00 | 0.00 | 0.00 | 79 | 1012.6 |
| 20260509220028 | 68 | 207 | 4.0 | 14.0 | 0.00 | 0.00 | 0.00 | 79 | 1012.7 |
| 20260509215514 | 68 | 249 | 7.0 | 14.0 | 0.00 | 0.00 | 0.00 | 78 | 1012.6 |
| 20260509215009 | 68 | 246 | 4.0 | 14.0 | 0.00 | 0.00 | 0.00 | 78 | 1012.7 |
| 20260509214532 | 68 | 254 | 5.0 | 13.0 | 0.00 | 0.00 | 0.00 | 79 | 1012.7 |
| 20260509214013 | 68 | 246 | 5.0 | 13.0 | 0.00 | 0.00 | 0.00 | 78 | 1012.7 |
| 20260509213513 | 69 | 289 | 4.0 | 14.0 | 0.00 | 0.00 | 0.00 | 78 | 1012.9 |
| 20260509213033 | 68 | 239 | 6.0 | 15.0 | 0.00 | 0.00 | 0.00 | 79 | 1012.9 |
| 20260509212514 | 68 | 269 | 7.0 | 15.0 | 0.00 | 0.00 | 0.00 | 79 | 1013.0 |
| 20260509212016 | 68 | 227 | 5.0 | 12.0 | 0.00 | 0.00 | 0.00 | 78 | 1013.0 |
| 20260509211531 | 69 | 273 | 5.0 | 12.0 | 0.00 | 0.00 | 0.00 | 78 | 1013.0 |
| 20260509211015 | 69 | 271 | 3.0 | 15.0 | 0.00 | 0.00 | 0.00 | 79 | 1013.1 |
| 20260509210515 | 69 | 259 | 6.0 | 15.0 | 0.00 | 0.00 | 0.00 | 78 | 1013.2 |
| 20260509210034 | 69 | 260 | 6.0 | 13.0 | 0.00 | 0.00 | 0.00 | 77 | 1013.1 |
| 20260509205513 | 69 | 217 | 5.0 | 13.0 | 0.00 | 0.00 | 0.00 | 77 | 1013.1 |
| 20260509205014 | 69 | 218 | 5.0 | 12.0 | 0.00 | 0.00 | 0.00 | 77 | 1013.1 |
| 20260509204528 | 69 | 256 | 6.0 | 13.0 | 0.00 | 0.00 | 0.00 | 78 | 1013.1 |
| 20260509204010 | 69 | 275 | 8.0 | 14.0 | 0.00 | 0.00 | 0.00 | 77 | 1013.1 |
| 20260509203513 | 70 | 228 | 5.0 | 14.0 | 0.00 | 0.00 | 0.00 | 77 | 1013.1 |
| 20260509203030 | 70 | 234 | 5.0 | 14.0 | 0.00 | 0.00 | 0.00 | 77 | 1013.1 |
| 20260509202513 | 70 | 258 | 5.0 | 14.0 | 0.00 | 0.00 | 0.00 | 76 | 1013.1 |
| 20260509202013 | 70 | 247 | 5.0 | 11.0 | 0.00 | 0.00 | 0.00 | 76 | 1013.1 |
| 20260509201530 | 70 | 237 | 5.0 | 13.0 | 0.00 | 0.00 | 0.00 | 77 | 1013.1 |
| 20260509201013 | 70 | 267 | 6.0 | 13.0 | 0.00 | 0.00 | 0.00 | 77 | 1013.1 |
| 20260509200513 | 70 | 214 | 4.0 | 12.0 | 0.00 | 0.00 | 0.00 | 77 | 1013.2 |
| 20260509200032 | 69 | 277 | 5.0 | 12.0 | 0.00 | 0.00 | 0.00 | 77 | 1013.2 |
| 20260509195516 | 69 | 261 | 4.0 | 12.0 | 0.00 | 0.00 | 0.00 | 78 | 1013.3 |
| 20260509195013 | 69 | 236 | 4.0 | 12.0 | 0.00 | 0.00 | 0.00 | 78 | 1013.4 |
| 20260509194533 | 69 | 236 | 5.0 | 12.0 | 0.00 | 0.00 | 0.00 | 78 | 1013.4 |
| 20260509194013 | 69 | 230 | 4.0 | 11.0 | 0.00 | 0.00 | 0.00 | 77 | 1013.5 |
| 20260509193513 | 69 | 232 | 3.0 | 12.0 | 0.00 | 0.00 | 0.00 | 78 | 1013.5 |
| 20260509193036 | 68 | 262 | 5.0 | 12.0 | 0.00 | 0.00 | 0.00 | 79 | 1013.5 |
| 20260509192513 | 68 | 196 | 3.0 | 12.0 | 0.00 | 0.00 | 0.00 | 79 | 1013.6 |
| 20260509192016 | 68 | 257 | 4.0 | 12.0 | 0.00 | 0.00 | 0.00 | 79 | 1013.7 |
| 20260509191531 | 68 | 267 | 5.0 | 12.0 | 0.00 | 0.00 | 0.00 | 78 | 1013.7 |
| 20260509191012 | 68 | 263 | 3.0 | 10.0 | 0.00 | 0.00 | 0.00 | 79 | 1013.7 |
| 20260509190514 | 68 | 232 | 5.0 | 11.0 | 0.00 | 0.00 | 0.00 | 79 | 1013.7 |
| 20260509190030 | 68 | 190 | 3.0 | 11.0 | 0.00 | 0.00 | 0.00 | 79 | 1013.7 |
| 20260509185514 | 68 | 263 | 5.0 | 11.0 | 0.00 | 0.00 | 0.00 | 78 | 1013.8 |
| 20260509185014 | 68 | 220 | 3.0 | 10.0 | 0.00 | 0.00 | 0.00 | 79 | 1013.9 |
| 20260509184539 | 68 | 252 | 4.0 | 10.0 | 0.00 | 0.00 | 0.00 | 79 | 1013.9 |
| 20260509184015 | 68 | 269 | 5.0 | 10.0 | 0.00 | 0.00 | 0.00 | 79 | 1013.9 |
| 20260509183512 | 68 | 265 | 4.0 | 12.0 | 0.00 | 0.00 | 0.00 | 80 | 1013.9 |
| 20260509183035 | 67 | 262 | 4.0 | 12.0 | 0.00 | 0.00 | 0.00 | 80 | 1013.9 |
| 20260509182514 | 67 | 255 | 5.0 | 12.0 | 0.00 | 0.00 | 0.00 | 80 | 1013.9 |
| 20260509182010 | 67 | 267 | 5.0 | 11.0 | 0.00 | 0.00 | 0.00 | 80 | 1013.9 |
| 20260509181530 | 67 | 268 | 6.0 | 10.0 | 0.00 | 0.00 | 0.00 | 80 | 1013.8 |
| 20260509181024 | 67 | 265 | 5.0 | 9.0 | 0.00 | 0.00 | 0.00 | 80 | 1013.9 |
| 20260509180511 | 67 | 226 | 3.0 | 9.0 | 0.00 | 0.00 | 0.00 | 81 | 1013.9 |
| 20260509180031 | 67 | 236 | 4.0 | 9.0 | 0.00 | 0.00 | 0.00 | 81 | 1013.9 |
| 20260509175513 | 67 | 257 | 4.0 | 10.0 | 0.00 | 0.00 | 0.00 | 81 | 1014.0 |
| 20260509175017 | 67 | 219 | 4.0 | 10.0 | 0.00 | 0.00 | 0.00 | 81 | 1014.0 |
| 20260509174530 | 66 | 201 | 4.0 | 9.0 | 0.00 | 0.00 | 0.00 | 81 | 1014.0 |
| 20260509174014 | 66 | 263 | 4.0 | 9.0 | 0.00 | 0.00 | 0.00 | 81 | 1014.0 |
| 20260509173513 | 67 | 217 | 3.0 | 7.0 | 0.00 | 0.00 | 0.00 | 81 | 1014.0 |
| 20260509173039 | 67 | 232 | 2.0 | 7.0 | 0.00 | 0.00 | 0.00 | 80 | 1014.0 |
| 20260509172516 | 68 | 265 | 2.0 | 6.0 | 0.00 | 0.00 | 0.00 | 80 | 1014.0 |
| 20260509172013 | 68 | 270 | 1.0 | 5.0 | 0.00 | 0.00 | 0.00 | 79 | 1014.0 |
| 20260509171540 | 67 | 109 | 1.0 | 5.0 | 0.00 | 0.00 | 0.00 | 79 | 1013.8 |
| 20260509171013 | 67 | 170 | 1.0 | 4.0 | 0.00 | 0.00 | 0.00 | 80 | 1013.8 |
| 20260509170513 | 66 | 252 | 0.0 | 4.0 | 0.00 | 0.00 | 0.00 | 80 | 1013.8 |
| 20260509170031 | 66 | 29 | 1.0 | 4.0 | 0.00 | 0.00 | 0.00 | 81 | 1013.7 |
| 20260509165513 | 66 | 76 | 2.0 | 4.0 | 0.00 | 0.00 | 0.00 | 81 | 1013.7 |
| 20260509165013 | 66 | 101 | 1.0 | 3.0 | 0.00 | 0.00 | 0.00 | 82 | 1013.7 |
| 20260509164529 | 65 | 0 | 1.0 | 3.0 | 0.00 | 0.00 | 0.00 | 82 | 1013.7 |
| 20260509164012 | 65 | 0 | 0.0 | 2.0 | 0.00 | 0.00 | 0.00 | 83 | 1013.7 |
| 20260509163512 | 65 | 0 | 0.0 | 3.0 | 0.00 | 0.00 | 0.00 | 83 | 1013.8 |
| 20260509163035 | 65 | 102 | 1.0 | 4.0 | 0.00 | 0.00 | 0.00 | 83 | 1013.8 |
| 20260509162511 | 64 | 116 | 0.0 | 4.0 | 0.00 | 0.00 | 0.00 | 84 | 1013.9 |
| 20260509162013 | 64 | 54 | 1.0 | 4.0 | 0.00 | 0.00 | 0.00 | 85 | 1013.8 |
| 20260509161534 | 64 | 0 | 0.0 | 3.0 | 0.00 | 0.00 | 0.00 | 85 | 1013.7 |
| 20260509161018 | 64 | 73 | 0.0 | 3.0 | 0.00 | 0.00 | 0.00 | 85 | 1013.8 |
| 20260509160513 | 64 | 32 | 1.0 | 4.0 | 0.00 | 0.00 | 0.00 | 85 | 1013.9 |
| 20260509160032 | 63 | 65 | 2.0 | 4.0 | 0.00 | 0.00 | 0.00 | 85 | 1013.9 |
| 20260509155512 | 63 | 70 | 1.0 | 4.0 | 0.00 | 0.00 | 0.00 | 86 | 1013.9 |
| 20260509155013 | 63 | 5 | 1.0 | 4.0 | 0.00 | 0.00 | 0.00 | 86 | 1013.9 |
| 20260509154534 | 63 | 40 | 1.0 | 4.0 | 0.00 | 0.00 | 0.00 | 86 | 1013.8 |
| 20260509154014 | 63 | 43 | 1.0 | 7.0 | 0.00 | 0.00 | 0.00 | 87 | 1013.8 |
| 20260509153514 | 63 | 0 | 2.0 | 7.0 | 0.00 | 0.00 | 0.00 | 87 | 1013.9 |
| 20260509153034 | 62 | 119 | 0.0 | 5.0 | 0.00 | 0.00 | 0.00 | 87 | 1013.9 |
| 20260509152513 | 62 | 0 | 1.0 | 5.0 | 0.00 | 0.00 | 0.00 | 87 | 1013.9 |
| 20260509152014 | 62 | 148 | 2.0 | 5.0 | 0.00 | 0.00 | 0.00 | 88 | 1014.0 |
| 20260509151530 | 62 | 151 | 0.0 | 3.0 | 0.00 | 0.00 | 0.00 | 88 | 1013.9 |
| 20260509151013 | 62 | 100 | 0.0 | 4.0 | 0.00 | 0.00 | 0.00 | 88 | 1013.9 |
| 20260509150512 | 62 | 99 | 2.0 | 4.0 | 0.00 | 0.00 | 0.00 | 89 | 1013.9 |
| 20260509150030 | 61 | 0 | 1.0 | 4.0 | 0.00 | 0.00 | 0.00 | 89 | 1013.9 |
| 20260509145514 | 61 | 86 | 1.0 | 4.0 | 0.00 | 0.00 | 0.00 | 89 | 1013.9 |
| 20260509145010 | 61 | 86 | 1.0 | 3.0 | 0.00 | 0.00 | 0.00 | 89 | 1013.9 |
| 20260509144551 | 61 | 127 | 0.0 | 4.0 | 0.00 | 0.00 | 0.00 | 89 | 1013.9 |
| 20260509144012 | 61 | 127 | 1.0 | 4.0 | 0.00 | 0.00 | 0.00 | 90 | 1014.0 |
| 20260509143517 | 61 | 103 | 1.0 | 4.0 | 0.00 | 0.00 | 0.00 | 90 | 1013.9 |
| 20260509143032 | 61 | 38 | 1.0 | 4.0 | 0.00 | 0.00 | 0.00 | 90 | 1013.9 |
| 20260509142515 | 61 | 93 | 1.0 | 4.0 | 0.00 | 0.00 | 0.00 | 90 | 1013.8 |
| 20260509142011 | 61 | 0 | 0.0 | 3.0 | 0.00 | 0.00 | 0.00 | 90 | 1013.8 |
| 20260509141536 | 61 | 39 | 0.0 | 3.0 | 0.00 | 0.00 | 0.00 | 90 | 1013.7 |
| 20260509141014 | 61 | 63 | 1.0 | 3.0 | 0.00 | 0.00 | 0.00 | 91 | 1013.7 |
| 20260509140513 | 60 | 90 | 0.0 | 3.0 | 0.00 | 0.00 | 0.00 | 91 | 1013.7 |
| 20260509140031 | 60 | 0 | 0.0 | 3.0 | 0.00 | 0.00 | 0.00 | 91 | 1013.6 |
| 20260509135512 | 60 | 90 | 1.0 | 3.0 | 0.00 | 0.00 | 0.00 | 91 | 1013.6 |
| 20260509135012 | 60 | 0 | 1.0 | 3.0 | 0.00 | 0.00 | 0.00 | 91 | 1013.6 |
| 20260509134530 | 60 | 0 | 0.0 | 3.0 | 0.00 | 0.00 | 0.00 | 91 | 1013.6 |
| 20260509134010 | 60 | 0 | 0.0 | 2.0 | 0.00 | 0.00 | 0.00 | 91 | 1013.7 |
| 20260509133513 | 60 | 0 | 0.0 | 2.0 | 0.00 | 0.00 | 0.00 | 91 | 1013.7 |
| 20260509133034 | 60 | 75 | 0.0 | 2.0 | 0.00 | 0.00 | 0.00 | 91 | 1013.6 |
| 20260509132513 | 60 | 75 | 0.0 | 2.0 | 0.00 | 0.00 | 0.00 | 92 | 1013.6 |
| 20260509132012 | 60 | 73 | 0.0 | 2.0 | 0.00 | 0.00 | 0.00 | 92 | 1013.5 |
| 20260509131538 | 60 | 0 | 0.0 | 3.0 | 0.00 | 0.00 | 0.00 | 91 | 1013.5 |
| 20260509131017 | 60 | 0 | 0.0 | 3.0 | 0.00 | 0.00 | 0.00 | 92 | 1013.4 |
| 20260509130513 | 60 | 71 | 1.0 | 3.0 | 0.00 | 0.00 | 0.00 | 92 | 1013.4 |
| 20260509130030 | 60 | 36 | 1.0 | 3.0 | 0.00 | 0.00 | 0.00 | 92 | 1013.3 |
| 20260509125514 | 60 | 87 | 0.0 | 2.0 | 0.00 | 0.00 | 0.00 | 92 | 1013.4 |
| 20260509125014 | 60 | 0 | 0.0 | 1.0 | 0.00 | 0.00 | 0.00 | 92 | 1013.3 |
| 20260509124535 | 60 | 0 | 0.0 | 1.0 | 0.00 | 0.00 | 0.00 | 92 | 1013.3 |
| 20260509124012 | 60 | 0 | 0.0 | 1.0 | 0.00 | 0.00 | 0.00 | 92 | 1013.3 |
| 20260509123513 | 60 | 0 | 0.0 | 2.0 | 0.00 | 0.00 | 0.00 | 92 | 1013.3 |
| 20260509123030 | 60 | 0 | 0.0 | 2.0 | 0.00 | 0.00 | 0.00 | 92 | 1013.3 |
| 20260509122511 | 60 | 0 | 0.0 | 4.0 | 0.00 | 0.00 | 0.00 | 92 | 1013.3 |
| 20260509122012 | 60 | 0 | 0.0 | 5.0 | 0.00 | 0.00 | 0.00 | 92 | 1013.3 |
| 20260509121533 | 60 | 159 | 2.0 | 5.0 | 0.00 | 0.00 | 0.00 | 92 | 1013.4 |
| 20260509121010 | 60 | 115 | 1.0 | 3.0 | 0.00 | 0.00 | 0.00 | 92 | 1013.3 |
| 20260509120513 | 60 | 126 | 1.0 | 3.0 | 0.00 | 0.00 | 0.00 | 92 | 1013.4 |
| 20260509120032 | 60 | 109 | 1.0 | 3.0 | 0.00 | 0.00 | 0.00 | 92 | 1013.3 |
| 20260509115512 | 60 | 88 | 1.0 | 4.0 | 0.00 | 0.00 | 0.00 | 92 | 1013.4 |
| 20260509115013 | 60 | 107 | 1.0 | 4.0 | 0.00 | 0.00 | 0.00 | 92 | 1013.4 |
| 20260509114530 | 60 | 122 | 1.0 | 4.0 | 0.00 | 0.00 | 0.00 | 92 | 1013.4 |
| 20260509114012 | 60 | 105 | 2.0 | 6.0 | 0.00 | 0.00 | 0.00 | 92 | 1013.4 |
| 20260509113514 | 60 | 88 | 2.0 | 6.0 | 0.00 | 0.00 | 0.00 | 92 | 1013.4 |
| 20260509113031 | 60 | 130 | 3.0 | 6.0 | 0.00 | 0.00 | 0.00 | 92 | 1013.4 |
| 20260509112511 | 60 | 98 | 1.0 | 7.0 | 0.00 | 0.00 | 0.00 | 92 | 1013.3 |
| 20260509112010 | 60 | 82 | 1.0 | 7.0 | 0.00 | 0.00 | 0.00 | 92 | 1013.3 |
| 20260509111529 | 60 | 103 | 2.0 | 7.0 | 0.00 | 0.00 | 0.00 | 92 | 1013.3 |
| 20260509111011 | 60 | 123 | 1.0 | 6.0 | 0.00 | 0.00 | 0.00 | 92 | 1013.2 |
| 20260509110512 | 60 | 107 | 2.0 | 6.0 | 0.00 | 0.00 | 0.00 | 92 | 1013.3 |
| 20260509110030 | 60 | 90 | 2.0 | 7.0 | 0.00 | 0.00 | 0.00 | 92 | 1013.3 |
| 20260509105513 | 60 | 107 | 1.0 | 7.0 | 0.00 | 0.00 | 0.00 | 92 | 1013.4 |
| 20260509105014 | 60 | 113 | 2.0 | 7.0 | 0.00 | 0.00 | 0.00 | 92 | 1013.3 |
| 20260509104534 | 60 | 123 | 1.0 | 4.0 | 0.00 | 0.00 | 0.00 | 92 | 1013.4 |
| 20260509104013 | 60 | 114 | 1.0 | 4.0 | 0.00 | 0.00 | 0.00 | 92 | 1013.4 |
| 20260509103512 | 60 | 104 | 1.0 | 4.0 | 0.00 | 0.00 | 0.00 | 92 | 1013.4 |
| 20260509103032 | 60 | 107 | 1.0 | 4.0 | 0.00 | 0.00 | 0.00 | 92 | 1013.4 |
| 20260509102516 | 60 | 86 | 2.0 | 4.0 | 0.00 | 0.00 | 0.00 | 92 | 1013.4 |
| 20260509102014 | 60 | 92 | 1.0 | 4.0 | 0.00 | 0.00 | 0.00 | 92 | 1013.4 |
| 20260509101530 | 60 | 0 | 0.0 | 2.0 | 0.00 | 0.00 | 0.00 | 92 | 1013.4 |
| 20260509101014 | 60 | 0 | 0.0 | 2.0 | 0.00 | 0.00 | 0.00 | 92 | 1013.5 |
| 20260509100514 | 60 | 273 | 0.0 | 2.0 | 0.00 | 0.00 | 0.00 | 92 | 1013.5 |
| 20260509100041 | 60 | 277 | 0.0 | 3.0 | 0.00 | 0.00 | 0.00 | 92 | 1013.4 |
| 20260509095512 | 60 | 0 | 0.0 | 3.0 | 0.00 | 0.00 | 0.00 | 92 | 1013.4 |
| 20260509095012 | 60 | 262 | 1.0 | 3.0 | 0.00 | 0.00 | 0.00 | 92 | 1013.6 |
| 20260509094534 | 60 | 0 | 1.0 | 3.0 | 0.00 | 0.00 | 0.00 | 92 | 1013.6 |
| 20260509094011 | 60 | 275 | 0.0 | 3.0 | 0.00 | 0.00 | 0.00 | 92 | 1013.5 |
| 20260509093513 | 60 | 275 | 1.0 | 3.0 | 0.00 | 0.00 | 0.00 | 91 | 1013.6 |
| 20260509093034 | 60 | 0 | 0.0 | 3.0 | 0.00 | 0.00 | 0.00 | 91 | 1013.7 |
| 20260509092513 | 60 | 266 | 1.0 | 3.0 | 0.00 | 0.00 | 0.00 | 91 | 1013.7 |
| 20260509092010 | 60 | 275 | 1.0 | 3.0 | 0.00 | 0.00 | 0.00 | 91 | 1013.7 |
| 20260509091530 | 60 | 271 | 1.0 | 3.0 | 0.00 | 0.00 | 0.00 | 91 | 1013.7 |
| 20260509091015 | 60 | 279 | 0.0 | 3.0 | 0.00 | 0.00 | 0.00 | 91 | 1013.8 |
| 20260509090511 | 60 | 274 | 0.0 | 3.0 | 0.00 | 0.00 | 0.00 | 91 | 1013.9 |
| 20260509090030 | 60 | 0 | 0.0 | 3.0 | 0.00 | 0.00 | 0.00 | 91 | 1013.8 |
| 20260509085513 | 60 | 282 | 0.0 | 3.0 | 0.00 | 0.00 | 0.00 | 91 | 1013.8 |
| 20260509085017 | 60 | 276 | 1.0 | 3.0 | 0.00 | 0.00 | 0.00 | 91 | 1014.0 |
| 20260509084533 | 60 | 265 | 1.0 | 3.0 | 0.00 | 0.00 | 0.00 | 91 | 1014.0 |
| 20260509084013 | 60 | 248 | 0.0 | 3.0 | 0.00 | 0.00 | 0.00 | 91 | 1014.0 |
| 20260509083512 | 60 | 263 | 1.0 | 3.0 | 0.00 | 0.00 | 0.00 | 91 | 1014.0 |
| 20260509083031 | 60 | 269 | 1.0 | 3.0 | 0.00 | 0.00 | 0.00 | 91 | 1014.1 |
| 20260509082518 | 60 | 273 | 1.0 | 2.0 | 0.00 | 0.00 | 0.00 | 91 | 1014.1 |
| 20260509082013 | 60 | 0 | 0.0 | 2.0 | 0.00 | 0.00 | 0.00 | 91 | 1014.2 |
| 20260509081541 | 60 | 259 | 0.0 | 2.0 | 0.00 | 0.00 | 0.00 | 91 | 1014.2 |
| 20260509081014 | 60 | 0 | 0.0 | 2.0 | 0.00 | 0.00 | 0.00 | 91 | 1014.3 |
| 20260509080511 | 60 | 0 | 0.0 | 3.0 | 0.00 | 0.00 | 0.00 | 91 | 1014.3 |
| 20260509080030 | 60 | 0 | 0.0 | 3.0 | 0.00 | 0.00 | 0.00 | 91 | 1014.4 |
| 20260509075514 | 60 | 0 | 1.0 | 3.0 | 0.00 | 0.00 | 0.00 | 90 | 1014.4 |
| 20260509075016 | 60 | 263 | 1.0 | 4.0 | 0.00 | 0.00 | 0.00 | 90 | 1014.4 |
| 20260509074535 | 60 | 252 | 1.0 | 4.0 | 0.00 | 0.00 | 0.00 | 90 | 1014.4 |
| 20260509074013 | 60 | 248 | 1.0 | 4.0 | 0.00 | 0.00 | 0.00 | 90 | 1014.6 |
| 20260509073513 | 60 | 238 | 1.0 | 4.0 | 0.00 | 0.00 | 0.00 | 90 | 1014.5 |
| 20260509073028 | 60 | 246 | 1.0 | 3.0 | 0.00 | 0.00 | 0.00 | 90 | 1014.6 |
| 20260509072511 | 60 | 275 | 1.0 | 3.0 | 0.00 | 0.00 | 0.00 | 90 | 1014.5 |
| 20260509072013 | 60 | 0 | 0.0 | 2.0 | 0.00 | 0.00 | 0.00 | 90 | 1014.5 |
| 20260509071528 | 60 | 261 | 0.0 | 3.0 | 0.00 | 0.00 | 0.00 | 90 | 1014.5 |
| 20260509071013 | 60 | 259 | 1.0 | 3.0 | 0.00 | 0.00 | 0.00 | 90 | 1014.6 |
| 20260509070514 | 60 | 0 | 0.0 | 3.0 | 0.00 | 0.00 | 0.00 | 90 | 1014.6 |
| 20260509070030 | 60 | 225 | 0.0 | 3.0 | 0.00 | 0.00 | 0.00 | 91 | 1014.5 |
| 20260509065515 | 60 | 266 | 1.0 | 3.0 | 0.00 | 0.00 | 0.00 | 91 | 1014.5 |
| 20260509065012 | 60 | 0 | 0.0 | 3.0 | 0.00 | 0.00 | 0.00 | 91 | 1014.6 |
| 20260509064532 | 60 | 266 | 1.0 | 3.0 | 0.00 | 0.00 | 0.00 | 91 | 1014.7 |
| 20260509064014 | 60 | 263 | 1.0 | 3.0 | 0.00 | 0.00 | 0.00 | 91 | 1014.7 |
| 20260509063514 | 60 | 223 | 0.0 | 4.0 | 0.00 | 0.00 | 0.00 | 91 | 1014.7 |
| 20260509063030 | 60 | 220 | 1.0 | 4.0 | 0.00 | 0.00 | 0.00 | 91 | 1014.7 |
| 20260509062517 | 60 | 260 | 1.0 | 3.0 | 0.00 | 0.00 | 0.00 | 91 | 1014.8 |
| 20260509062013 | 59 | 227 | 1.0 | 6.0 | 0.00 | 0.00 | 0.00 | 91 | 1014.8 |
| 20260509061538 | 59 | 229 | 1.0 | 6.0 | 0.00 | 0.00 | 0.00 | 91 | 1014.9 |
| 20260509061016 | 59 | 248 | 2.0 | 5.0 | 0.00 | 0.00 | 0.00 | 91 | 1014.9 |
| 20260509060513 | 59 | 232 | 2.0 | 7.0 | 0.00 | 0.00 | 0.00 | 91 | 1014.9 |
| 20260509060032 | 59 | 234 | 2.0 | 7.0 | 0.00 | 0.00 | 0.00 | 92 | 1014.9 |
| 20260509055513 | 59 | 263 | 1.0 | 6.0 | 0.00 | 0.00 | 0.00 | 92 | 1014.9 |
| 20260509055015 | 59 | 232 | 1.0 | 6.0 | 0.00 | 0.00 | 0.00 | 92 | 1015.0 |
| 20260509054532 | 59 | 261 | 2.0 | 7.0 | 0.00 | 0.00 | 0.00 | 92 | 1015.0 |
| 20260509054013 | 59 | 238 | 2.0 | 7.0 | 0.00 | 0.00 | 0.00 | 92 | 1014.9 |
| 20260509053513 | 59 | 275 | 1.0 | 4.0 | 0.00 | 0.00 | 0.00 | 92 | 1015.0 |
| 20260509053032 | 59 | 271 | 1.0 | 4.0 | 0.00 | 0.00 | 0.00 | 92 | 1015.0 |
| 20260509052514 | 59 | 245 | 0.0 | 4.0 | 0.00 | 0.00 | 0.00 | 92 | 1014.9 |
| 20260509052018 | 59 | 0 | 1.0 | 4.0 | 0.00 | 0.00 | 0.00 | 92 | 1014.9 |
| 20260509051534 | 59 | 263 | 1.0 | 4.0 | 0.00 | 0.00 | 0.00 | 92 | 1014.8 |
| 20260509051013 | 59 | 269 | 1.0 | 6.0 | 0.00 | 0.00 | 0.00 | 91 | 1014.8 |
| 20260509050513 | 59 | 239 | 1.0 | 6.0 | 0.00 | 0.00 | 0.00 | 91 | 1014.8 |
| 20260509050042 | 59 | 263 | 1.0 | 6.0 | 0.00 | 0.00 | 0.00 | 91 | 1014.9 |
| 20260509045515 | 59 | 226 | 1.0 | 4.0 | 0.00 | 0.00 | 0.00 | 91 | 1014.7 |
| 20260509045010 | 59 | 234 | 2.0 | 4.0 | 0.00 | 0.00 | 0.00 | 91 | 1014.7 |
| 20260509044542 | 60 | 0 | 1.0 | 4.0 | 0.00 | 0.00 | 0.00 | 91 | 1014.7 |
| 20260509044011 | 59 | 267 | 1.0 | 6.0 | 0.00 | 0.00 | 0.00 | 91 | 1014.6 |
| 20260509043515 | 60 | 257 | 0.0 | 6.0 | 0.00 | 0.00 | 0.00 | 91 | 1014.6 |
| 20260509043029 | 60 | 256 | 2.0 | 6.0 | 0.00 | 0.00 | 0.00 | 91 | 1014.6 |
| 20260509042515 | 60 | 249 | 1.0 | 8.0 | 0.00 | 0.00 | 0.00 | 91 | 1014.6 |
| 20260509042011 | 60 | 251 | 1.0 | 8.0 | 0.00 | 0.00 | 0.00 | 91 | 1014.6 |
| 20260509041532 | 60 | 225 | 2.0 | 10.0 | 0.00 | 0.00 | 0.00 | 91 | 1014.5 |
| 20260509041014 | 60 | 257 | 4.0 | 10.0 | 0.00 | 0.00 | 0.00 | 91 | 1014.5 |
| 20260509040510 | 60 | 235 | 3.0 | 8.0 | 0.00 | 0.00 | 0.00 | 91 | 1014.5 |
| 20260509040029 | 60 | 265 | 4.0 | 8.0 | 0.00 | 0.00 | 0.00 | 90 | 1014.4 |
| 20260509035515 | 60 | 202 | 2.0 | 9.0 | 0.00 | 0.00 | 0.00 | 90 | 1014.4 |
| 20260509035015 | 60 | 0 | 3.0 | 9.0 | 0.00 | 0.00 | 0.00 | 90 | 1014.4 |
| 20260509034534 | 60 | 263 | 2.0 | 8.0 | 0.00 | 0.00 | 0.00 | 90 | 1014.3 |
| 20260509034014 | 60 | 284 | 3.0 | 8.0 | 0.00 | 0.00 | 0.00 | 90 | 1014.2 |
| 20260509033514 | 60 | 228 | 3.0 | 7.0 | 0.00 | 0.00 | 0.00 | 90 | 1014.2 |
| 20260509033031 | 60 | 211 | 2.0 | 8.0 | 0.00 | 0.00 | 0.00 | 90 | 1014.1 |
| 20260509032518 | 60 | 258 | 3.0 | 8.0 | 0.00 | 0.00 | 0.00 | 90 | 1014.0 |
| 20260509032013 | 60 | 269 | 2.0 | 8.0 | 0.00 | 0.00 | 0.00 | 90 | 1014.1 |
| 20260509031535 | 60 | 258 | 2.0 | 9.0 | 0.00 | 0.00 | 0.00 | 90 | 1014.0 |
| 20260509031013 | 61 | 254 | 3.0 | 9.0 | 0.00 | 0.00 | 0.00 | 90 | 1014.0 |
| 20260509030517 | 61 | 209 | 3.0 | 8.0 | 0.00 | 0.00 | 0.00 | 90 | 1013.9 |
| 20260509030033 | 61 | 252 | 3.0 | 10.0 | 0.00 | 0.00 | 0.00 | 90 | 1013.8 |
| 20260509025514 | 61 | 263 | 3.0 | 10.0 | 0.00 | 0.00 | 0.00 | 90 | 1013.7 |
| 20260509025013 | 61 | 281 | 3.0 | 9.0 | 0.00 | 0.00 | 0.00 | 90 | 1013.7 |
| 20260509024529 | 61 | 245 | 3.0 | 9.0 | 0.00 | 0.00 | 0.00 | 90 | 1013.7 |
| 20260509024015 | 61 | 210 | 3.0 | 10.0 | 0.00 | 0.00 | 0.00 | 90 | 1013.6 |
| 20260509023515 | 61 | 276 | 4.0 | 10.0 | 0.00 | 0.00 | 0.00 | 90 | 1013.5 |
| 20260509023036 | 61 | 263 | 3.0 | 12.0 | 0.00 | 0.00 | 0.00 | 90 | 1013.5 |
| 20260509022515 | 61 | 263 | 6.0 | 12.0 | 0.00 | 0.00 | 0.00 | 89 | 1013.4 |
| 20260509022014 | 61 | 263 | 3.0 | 10.0 | 0.00 | 0.00 | 0.00 | 89 | 1013.4 |
| 20260509021532 | 61 | 254 | 3.0 | 10.0 | 0.00 | 0.00 | 0.00 | 89 | 1013.5 |
| 20260509021014 | 61 | 273 | 3.0 | 11.0 | 0.00 | 0.00 | 0.00 | 89 | 1013.5 |
| 20260509020516 | 61 | 260 | 6.0 | 12.0 | 0.00 | 0.00 | 0.00 | 89 | 1013.5 |
| 20260509020034 | 62 | 267 | 5.0 | 12.0 | 0.00 | 0.00 | 0.00 | 89 | 1013.5 |
| 20260509015510 | 62 | 304 | 6.0 | 12.0 | 0.00 | 0.00 | 0.00 | 89 | 1013.4 |
| 20260509015012 | 62 | 266 | 4.0 | 12.0 | 0.00 | 0.00 | 0.00 | 89 | 1013.4 |
| 20260509014534 | 62 | 272 | 5.0 | 13.0 | 0.00 | 0.00 | 0.00 | 89 | 1013.3 |
| 20260509014013 | 62 | 242 | 6.0 | 13.0 | 0.00 | 0.00 | 0.00 | 88 | 1013.2 |
| 20260509013513 | 62 | 261 | 4.0 | 11.0 | 0.00 | 0.00 | 0.00 | 88 | 1013.4 |
| 20260509013048 | 62 | 252 | 5.0 | 14.0 | 0.00 | 0.00 | 0.00 | 88 | 1013.3 |
| 20260509012515 | 62 | 214 | 6.0 | 15.0 | 0.00 | 0.00 | 0.00 | 88 | 1013.3 |
| 20260509012013 | 63 | 242 | 6.0 | 15.0 | 0.00 | 0.00 | 0.00 | 87 | 1013.3 |
| 20260509011535 | 63 | 267 | 3.0 | 15.0 | 0.00 | 0.00 | 0.00 | 87 | 1013.4 |
| 20260509011013 | 64 | 267 | 4.0 | 15.0 | 0.00 | 0.00 | 0.00 | 86 | 1013.4 |
| 20260509010513 | 64 | 265 | 4.0 | 12.0 | 0.00 | 0.00 | 0.00 | 86 | 1013.4 |
| 20260509010032 | 64 | 223 | 4.0 | 12.0 | 0.00 | 0.00 | 0.00 | 86 | 1013.4 |
| 20260509005514 | 64 | 236 | 6.0 | 15.0 | 0.00 | 0.00 | 0.00 | 86 | 1013.3 |
| 20260509005013 | 64 | 273 | 7.0 | 15.0 | 0.00 | 0.00 | 0.00 | 86 | 1013.4 |
| 20260509004533 | 64 | 267 | 6.0 | 15.0 | 0.00 | 0.00 | 0.00 | 85 | 1013.6 |
| 20260509004013 | 64 | 270 | 5.0 | 15.0 | 0.00 | 0.00 | 0.00 | 86 | 1013.6 |
| 20260509003515 | 64 | 302 | 5.0 | 14.0 | 0.00 | 0.00 | 0.00 | 86 | 1013.6 |
| 20260509003033 | 64 | 273 | 6.0 | 16.0 | 0.00 | 0.00 | 0.00 | 85 | 1013.5 |
| 20260509002514 | 65 | 224 | 6.0 | 16.0 | 0.00 | 0.00 | 0.00 | 84 | 1013.5 |
| 20260509002013 | 65 | 280 | 6.0 | 16.0 | 0.00 | 0.00 | 0.00 | 84 | 1013.6 |
| 20260509001532 | 65 | 269 | 7.0 | 14.0 | 0.00 | 0.00 | 0.00 | 84 | 1013.6 |